| time (UTC) | temp F | wind direction | speed MPH | gust MPH | rain 1hr in | rain 24hr in | rain mn in | humidity % | barometer mb |
| 20260504081440 | 69 | 221 | 3.0 | 7.0 | 0.00 | 0.00 | 0.00 | 54 | 1008.1 |
| 20260504045939 | 54 | 18 | 0.0 | 0.0 | 0.00 | 0.00 | 0.00 | 80 | 1007.8 |
| 20260504044439 | 53 | 6 | 0.0 | 0.0 | 0.00 | 0.00 | 0.00 | 84 | 1007.7 |
| 20260504042939 | 51 | 112 | 0.0 | 0.0 | 0.00 | 0.00 | 0.00 | 83 | 1007.5 |
| 20260504041439 | 50 | 42 | 0.0 | 0.0 | 0.00 | 0.00 | 0.00 | 82 | 1007.3 |
| 20260504035939 | 49 | 42 | 0.0 | 0.0 | 0.00 | 0.00 | 0.00 | 83 | 1007.2 |
| 20260504034439 | 49 | 42 | 0.0 | 0.0 | 0.00 | 0.00 | 0.00 | 80 | 1007.0 |
| 20260504032939 | 48 | 42 | 0.0 | 0.0 | 0.00 | 0.00 | 0.00 | 81 | 1006.9 |
| 20260504031439 | 48 | 42 | 0.0 | 0.0 | 0.00 | 0.00 | 0.00 | 80 | 1007.0 |
| 20260504025939 | 48 | 42 | 0.0 | 0.0 | 0.00 | 0.00 | 0.00 | 79 | 1007.0 |
| 20260504024439 | 49 | 42 | 0.0 | 0.0 | 0.00 | 0.00 | 0.00 | 78 | 1006.8 |
| 20260504022938 | 49 | 42 | 0.0 | 0.0 | 0.00 | 0.00 | 0.00 | 78 | 1006.7 |
| 20260504021438 | 49 | 42 | 0.0 | 0.0 | 0.00 | 0.00 | 0.00 | 76 | 1006.6 |
| 20260504015938 | 49 | 42 | 0.0 | 0.0 | 0.00 | 0.00 | 0.00 | 76 | 1006.7 |
| 20260504014438 | 49 | 42 | 0.0 | 0.0 | 0.00 | 0.00 | 0.00 | 78 | 1006.6 |
| 20260504012937 | 50 | 42 | 0.0 | 0.0 | 0.00 | 0.00 | 0.00 | 75 | 1006.6 |
| 20260504011437 | 50 | 42 | 0.0 | 0.0 | 0.00 | 0.00 | 0.00 | 76 | 1006.5 |
| 20260504005937 | 51 | 42 | 0.0 | 0.0 | 0.00 | 0.00 | 0.00 | 74 | 1006.5 |
| 20260504004437 | 51 | 42 | 0.0 | 0.0 | 0.00 | 0.00 | 0.00 | 76 | 1006.6 |
| 20260504002937 | 51 | 42 | 0.0 | 0.0 | 0.00 | 0.00 | 0.00 | 72 | 1006.5 |
| 20260504001437 | 52 | 42 | 0.0 | 0.0 | 0.00 | 0.00 | 0.00 | 70 | 1006.5 |
| 20260503235937 | 52 | 42 | 0.0 | 0.0 | 0.00 | 0.00 | 0.00 | 70 | 1006.5 |
| 20260503234437 | 53 | 42 | 0.0 | 0.0 | 0.00 | 0.00 | 0.00 | 74 | 1006.4 |
| 20260503232937 | 53 | 42 | 0.0 | 0.0 | 0.00 | 0.00 | 0.00 | 70 | 1006.4 |
| 20260503231437 | 55 | 42 | 0.0 | 0.0 | 0.00 | 0.00 | 0.00 | 68 | 1006.4 |
| 20260503225937 | 55 | 42 | 0.0 | 0.0 | 0.00 | 0.00 | 0.00 | 68 | 1006.4 |
| 20260503224437 | 56 | 42 | 0.0 | 0.0 | 0.00 | 0.00 | 0.00 | 70 | 1006.3 |
| 20260503222937 | 56 | 42 | 0.0 | 0.0 | 0.00 | 0.00 | 0.00 | 70 | 1006.3 |
| 20260503221437 | 57 | 42 | 0.0 | 0.0 | 0.00 | 0.00 | 0.00 | 66 | 1006.3 |
| 20260503215937 | 58 | 42 | 0.0 | 0.0 | 0.00 | 0.00 | 0.00 | 64 | 1006.4 |
| 20260503214437 | 59 | 42 | 0.0 | 0.0 | 0.00 | 0.00 | 0.00 | 58 | 1006.3 |
| 20260503212937 | 59 | 42 | 0.0 | 0.0 | 0.00 | 0.00 | 0.00 | 56 | 1006.4 |
| 20260503211436 | 61 | 42 | 0.0 | 3.0 | 0.00 | 0.00 | 0.00 | 57 | 1006.3 |
| 20260503205936 | 60 | 48 | 0.0 | 0.0 | 0.00 | 0.00 | 0.00 | 59 | 1006.3 |
| 20260503204436 | 60 | 354 | 0.0 | 0.0 | 0.00 | 0.00 | 0.00 | 51 | 1006.3 |
| 20260503202936 | 62 | 343 | 0.0 | 3.0 | 0.00 | 0.00 | 0.00 | 51 | 1006.3 |
| 20260503201436 | 67 | 204 | 1.0 | 4.0 | 0.00 | 0.00 | 0.00 | 39 | 1006.2 |
| 20260503195936 | 65 | 204 | 0.0 | 3.0 | 0.00 | 0.00 | 0.00 | 43 | 1006.3 |
| 20260503194436 | 62 | 78 | 0.0 | 1.0 | 0.00 | 0.00 | 0.00 | 50 | 1006.4 |
| 20260503192936 | 64 | 81 | 0.0 | 0.0 | 0.00 | 0.00 | 0.00 | 46 | 1006.4 |
| 20260503191436 | 65 | 126 | 0.0 | 0.0 | 0.00 | 0.00 | 0.00 | 46 | 1006.4 |
| 20260503185936 | 69 | 43 | 0.0 | 3.0 | 0.00 | 0.00 | 0.00 | 40 | 1006.3 |
| 20260503184436 | 72 | 151 | 1.0 | 4.0 | 0.00 | 0.00 | 0.00 | 33 | 1006.2 |
| 20260503182936 | 73 | 136 | 2.0 | 5.0 | 0.00 | 0.00 | 0.00 | 31 | 1006.0 |
| 20260503181436 | 74 | 133 | 2.0 | 5.0 | 0.00 | 0.00 | 0.00 | 32 | 1005.9 |
| 20260503175936 | 77 | 156 | 3.0 | 9.0 | 0.00 | 0.00 | 0.00 | 28 | 1005.8 |
| 20260503174436 | 78 | 136 | 3.0 | 6.0 | 0.00 | 0.00 | 0.00 | 28 | 1005.8 |
| 20260503172936 | 79 | 188 | 1.0 | 4.0 | 0.00 | 0.00 | 0.00 | 29 | 1005.8 |
| 20260503171435 | 81 | 224 | 0.0 | 2.0 | 0.00 | 0.00 | 0.00 | 29 | 1005.7 |